Location: Colle Santa Colomba
(42.0333°N, 12.5667°E)
Time: 22:13:00
(UTC+00:00)

USA 267 - Pass Details

Date: 25 October 2021
Orbit: 1101 x 1107 km, 123.0° (Epoch: 27 November)

Event Time Altitude Azimuth Distance (km) Brightness Sun altitude
Exits shadow 17:10:06 - 126° (SE) 3,657 5.6 -11.2°
Reaches altitude 10° 17:11:56 10° 126° (SE) 2,952 5.1 -11.6°
Maximum altitude 17:18:27 82° 40° (NE) 1,115 3.2 -12.8°
Drops below altitude 10° 17:25:00 10° 313° (NW) 2,962 6.1 -14.0°
Sets 17:27:29 0° 313° (NW) 3,923 6.8 -14.5°
